Wind_Speed
13 12 15 15 11 5 3 6 9 9 8 8 11 12 11 12 12 13 13 13 12 12 12 8 8 8 9 10 9 9 9 8 7 5 4 4 4 4 5 6 8 7 8 9
12 17 14 10 9 6 7 8 10 8 7 8 9 9 12 13 13 14 14 14 12 12 14 11 9 8 7 7 8 8 8 7 6 5 4 5 5 6 6 9 11 10 10 10
16 15 15 14 13 12 11 11 13 9 9 9 6 13 14 15 14 14 15 15 14 14 15 10 7 8 8 5 4 6 8 7 6 5 6 7 8 8 9 12 11 13 15 16
18 10 16 17 16 14 18 12 3 9 9 19 14 15 18 18 17 18 17 18 17 17 16 9 8 8 8 7 6 6 7 8 7 6 5 4 5 9 9 18 9 12 15 17
20 16 18 20 16 13 8 5 8 12 15 17 10 14 22 18 16 17 19 20 19 19 17 14 8 8 8 9 9 8 8 8 7 6 5 4 4 4 5 8 10 12 14 17
13 15 18 18 15 13 10 7 8 9 15 17 12 11 20 20 17 16 19 22 22 22 21 18 14 11 12 12 13 11 11 10 8 5 3 3 2 5 6 7 11 9 7 10
20 16 19 16 17 15 12 13 12 9 11 10 13 9 11 2 3 9 11 20 22 24 23 22 20 16 13 16 15 12 10 9 6 4 4 3 4 7 8 9 10 12 10 11
25 22 24 22 20 16 17 20 16 4 11 14 9 10 11 7 6 6 12 13 21 24 24 24 22 20 12 12 12 10 8 8 9 7 8 12 12 14 14 13 10 13 16 17
23 24 23 20 22 19 16 19 13 9 7 6 12 7 10 8 8 9 11 16 20 22 25 24 24 22 20 17 14 15 14 15 16 19 15 13 17 20 20 21 23 24 25 26
12 19 24 21 20 21 12 15 11 10 5 6 9 4 3 5 3 4 8 12 17 22 23 24 23 24 21 20 20 19 19 20 23 24 23 20 22 24 25 28 30 32 33 35
22 20 24 23 26 22 22 14 18 16 10 6 6 11 9 5 3 3 4 7 14 20 21 23 21 23 23 20 20 22 23 24 24 25 27 26 25 28 31 33 36 40 40 40
29 17 22 26 22 24 22 21 20 19 11 13 12 15 10 8 3 2 4 7 9 14 19 22 20 21 22 22 22 24 21 21 25 24 25 25 28 32 36 38 40 41 44 46
29 28 23 22 16 22 25 20 23 20 13 8 11 10 8 4 2 1 4 5 8 12 16 21 19 19 27 21 20 19 22 21 25 27 26 28 32 37 40 41 43 44 47 51
31 28 27 28 22 23 25 26 22 21 17 18 19 10 9 7 3 2 3 9 9 12 15 17 19 30 28 21 26 27 29 22 30 28 30 30 36 40 40 42 44 48 52 57
31 35 29 26 22 22 24 25 22 24 21 19 4 10 4 6 3 6 7 14 16 18 17 18 23 29 25 28 31 31 30 32 29 32 37 37 37 39 42 45 49 54 57 60
30 27 30 28 28 16 16 23 23 23 21 19 20 14 6 11 3 4 8 13 19 22 14 15 27 32 30 31 32 33 30 31 33 36 35 36 39 43 47 51 55 59 62 59
29 31 26 32 26 22 27 24 22 21 21 21 19 17 8 5 5 9 12 11 16 22 23 22 21 24 29 32 33 32 32 32 31 33 36 40 44 48 52 58 61 57 55 56
31 29 25 27 24 23 24 26 26 24 21 18 15 8 9 11 17 21 17 8 8 16 23 20 20 22 20 21 21 23 25 29 32 35 40 44 50 56 57 54 52 51 55 50
30 32 31 27 33 17 13 16 20 20 21 18 15 12 7 13 17 12 12 11 10 12 14 13 14 15 17 18 21 24 29 33 37 43 47 52 57 51 49 48 47 46 46 46
22 26 32 27 27 22 26 22 21 18 20 20 17 13 10 8 7 14 12 12 11 11 10 11 13 16 19 22 26 31 36 41 45 48 52 52 45 44 38 34 34 36 38 42
26 26 30 28 28 19 12 15 15 20 11 19 16 13 11 9 14 16 12 13 15 14 14 16 19 23 26 30 34 39 44 48 50 52 43 42 35 32 36 36 35 39 39 40
27 30 30 30 29 15 19 18 17 15 12 13 11 11 14 17 18 19 19 17 18 18 19 21 24 28 33 37 41 47 49 44 37 38 36 34 32 32 37 40 38 34 38 39
34 32 33 15 24 17 13 15 21 18 14 11 10 12 16 16 20 20 20 22 21 22 23 26 28 33 37 44 42 37 36 35 35 35 32 30 31 34 37 34 32 36 36 37
27 27 18 20 8 16 17 14 14 14 14 13 13 17 15 16 19 23 24 23 24 25 26 30 33 38 39 35 35 37 36 36 33 31 30 31 34 35 31 29 29 32 31 32
26 29 17 13 17 18 15 17 16 14 15 17 14 15 19 20 22 22 21 21 25 27 30 36 38 35 32 33 34 35 32 30 29 30 32 33 35 32 30 25 28 31 28 32
13 19 23 20 23 14 21 18 17 17 18 20 20 20 22 22 19 21 21 24 28 32 36 37 36 33 35 33 31 30 29 29 31 31 32 31 31 30 27 26 29 27 28 31
Wind_Direction
214 212 211 206 211 284 242 179 155 129 172 208 192 151 167 170 178 176 180 180 179 186 187 189 183 187 191 195 198 199 201 196 188 186 197 218 255 287 305 299 306 293 303 314
211 217 204 207 208 210 201 208 175 168 183 221 189 179 174 183 188 190 185 186 181 182 191 200 198 203 199 199 201 206 207 202 201 207 221 237 247 265 265 270 268 304 309 306
210 217 201 212 205 201 207 212 189 215 194 225 195 186 187 191 193 199 196 195 187 186 189 189 198 205 204 214 214 230 218 206 205 224 242 251 257 269 283 263 301 301 302 301
212 207 202 205 210 215 219 209 224 215 212 222 205 229 188 193 195 202 204 204 197 195 188 194 192 199 202 202 207 220 209 209 210 217 223 233 251 270 267 319 291 282 285 290
211 209 204 203 211 212 262 205 228 234 228 243 214 266 190 194 201 210 213 212 207 201 197 192 186 193 184 194 190 165 166 177 191 203 216 239 268 281 294 299 299 290 297 289
194 218 205 207 210 215 227 222 223 228 238 226 239 227 160 199 210 220 217 212 209 209 203 202 194 192 185 181 174 174 166 166 168 169 153 141 49 1 341 337 330 17 311 338
209 212 201 208 202 203 208 200 203 218 224 248 184 200 250 221 182 207 228 212 210 211 207 203 200 186 167 173 174 178 180 184 196 217 231 231 287 310 317 326 344 336 346 297
206 209 203 203 201 199 212 214 244 181 216 187 189 237 244 230 244 263 233 223 215 213 213 210 207 198 193 183 193 197 213 223 234 248 261 263 277 293 299 299 299 311 314 319
202 225 205 211 206 209 206 233 249 276 256 295 182 201 253 239 245 251 245 224 222 211 215 212 211 211 208 217 225 229 239 248 256 250 257 274 281 282 285 292 300 303 308 312
232 215 199 199 207 216 229 218 219 239 242 234 164 193 133 175 211 262 243 228 221 216 212 214 214 215 215 217 223 237 246 252 257 254 257 270 282 286 284 286 291 295 299 304
216 223 200 205 210 207 211 228 226 261 229 302 214 142 137 142 232 255 248 228 215 216 217 215 215 218 220 223 226 237 239 253 255 260 264 269 278 288 289 285 287 288 294 298
207 213 230 204 224 218 215 220 224 240 200 251 300 114 149 134 90 257 240 251 222 223 216 216 218 217 220 220 226 238 237 247 251 259 266 271 274 285 288 287 289 290 294 297
207 219 219 222 199 212 220 223 223 222 244 211 236 135 160 158 69 333 241 248 246 217 213 213 213 220 230 225 224 234 239 242 257 265 265 269 277 282 287 288 287 290 293 295
209 213 226 216 210 215 215 224 224 215 212 231 220 175 193 189 108 318 291 244 230 228 214 221 216 222 230 230 236 240 254 245 263 267 267 270 278 283 286 287 291 292 293 296
207 218 220 235 231 218 212 217 214 224 229 246 267 234 156 156 196 277 272 241 239 225 239 228 235 244 245 245 253 253 259 262 262 267 275 280 281 285 288 290 291 294 298 298
207 217 221 231 229 227 233 205 214 219 229 236 248 253 190 258 267 264 271 253 245 249 234 222 230 248 253 247 253 256 256 263 269 273 276 279 285 290 292 295 297 299 298 300
208 212 217 230 225 234 232 229 228 232 231 238 244 251 206 224 232 276 274 263 247 248 246 249 252 253 254 260 262 264 264 266 269 273 281 288 292 295 298 297 299 299 301 302
209 214 217 227 225 229 237 235 236 237 236 229 232 210 208 222 272 283 280 229 222 239 251 252 252 257 263 262 259 260 266 273 281 286 290 292 296 300 302 300 299 296 299 300
211 213 217 222 232 228 221 231 231 219 228 214 217 206 203 255 285 269 252 236 228 244 255 252 248 247 253 263 269 275 280 287 289 290 293 298 300 299 299 301 301 298 297 299
205 212 217 216 240 226 231 218 204 208 223 215 205 213 217 205 240 227 237 251 252 248 246 247 257 268 275 280 285 287 288 289 291 293 296 298 295 297 301 308 307 305 307 307
207 209 216 224 220 232 154 187 169 191 215 188 196 204 203 208 212 234 238 248 252 254 260 264 270 276 279 282 285 287 289 291 293 295 294 296 297 296 307 311 310 312 308 309
207 206 219 227 233 211 182 166 186 191 174 171 186 201 201 228 233 240 255 255 252 252 256 265 273 278 283 286 290 291 291 292 293 297 300 300 300 304 312 314 314 311 309 309
212 215 222 232 225 200 177 188 194 207 211 218 204 197 239 246 235 242 248 250 254 259 264 270 277 284 288 291 292 290 293 296 299 301 302 302 301 306 313 314 313 312 314 318
207 209 213 222 183 170 203 204 195 208 230 231 210 235 226 185 221 240 242 249 257 265 273 279 285 290 292 293 296 296 299 299 298 299 300 301 303 308 312 314 313 318 316 314
210 215 203 191 191 207 203 196 212 233 241 232 200 174 183 215 237 245 247 258 269 275 282 289 293 292 288 297 299 298 300 299 298 300 303 305 305 310 314 313 315 316 315 317
191 199 204 212 224 194 213 214 230 243 242 240 239 234 228 232 240 252 262 270 278 287 292 293 292 293 292 297 298 300 301 301 301 302 303 304 306 311 314 314 309 312 311 311
Height
3194 3198 3198 3196 3196 3195 3193 3193 3196 3199 3203 3204 3203 3206 3212 3215 3216 3218 3218 3217 3218 3218 3218 3217 3218 3219 3220 3221 3222 3223 3223 3224 3225 3226 3226 3227 3227 3228 3228 3228 3228 3228 3228 3228
3196 3195 3195 3196 3197 3198 3198 3195 3195 3201 3203 3203 3202 3205 3209 3212 3214 3216 3218 3218 3219 3220 3219 3218 3218 3218 3219 3221 3221 3222 3223 3224 3224 3225 3226 3226 3227 3227 3228 3227 3228 3226 3226 3225
3192 3192 3194 3196 3198 3198 3197 3194 3195 3198 3202 3202 3201 3203 3205 3209 3212 3214 3217 3218 3219 3219 3219 3217 3218 3218 3219 3220 3221 3221 3222 3223 3224 3224 3225 3226 3226 3226 3225 3215 3223 3224 3224 3222
3190 3190 3192 3194 3195 3196 3192 3194 3196 3197 3199 3196 3198 3194 3201 3205 3208 3211 3214 3216 3218 3219 3218 3217 3217 3217 3219 3220 3220 3220 3221 3222 3222 3223 3224 3224 3224 3224 3222 3205 3220 3222 3221 3219
3187 3188 3191 3192 3193 3194 3193 3194 3196 3197 3196 3193 3194 3194 3193 3201 3204 3207 3210 3213 3215 3217 3218 3217 3216 3216 3218 3219 3220 3221 3221 3221 3222 3223 3223 3224 3224 3223 3223 3222 3220 3220 3219 3217
3183 3186 3188 3190 3191 3193 3193 3195 3196 3195 3192 3189 3191 3193 3190 3192 3196 3200 3202 3207 3212 3214 3216 3217 3216 3216 3217 3218 3220 3220 3221 3221 3221 3222 3223 3223 3223 3222 3222 3220 3219 3219 3220 3218
3182 3183 3185 3187 3189 3192 3193 3193 3190 3191 3188 3184 3184 3190 3190 3193 3195 3198 3200 3201 3206 3211 3213 3214 3215 3215 3215 3217 3218 3219 3219 3220 3221 3221 3221 3222 3222 3221 3220 3219 3217 3217 3217 3216
3177 3179 3181 3183 3185 3188 3190 3187 3179 3180 3176 3177 3188 3189 3191 3192 3194 3196 3198 3201 3202 3207 3210 3212 3213 3213 3214 3215 3217 3217 3217 3218 3218 3219 3219 3219 3219 3218 3217 3216 3216 3215 3213 3211
3170 3172 3175 3179 3182 3185 3186 3186 3183 3179 3178 3177 3178 3187 3189 3191 3194 3195 3197 3199 3200 3202 3207 3209 3212 3211 3211 3212 3213 3214 3215 3215 3216 3216 3216 3216 3216 3215 3214 3213 3211 3209 3206 3204
3165 3168 3169 3176 3179 3181 3182 3185 3185 3182 3176 3179 3175 3182 3184 3190 3192 3193 3194 3196 3198 3200 3204 3207 3210 3210 3211 3211 3211 3211 3211 3212 3212 3213 3213 3212 3211 3210 3209 3207 3205 3203 3201 3198
3164 3165 3166 3171 3174 3176 3181 3180 3180 3177 3176 3172 3173 3176 3184 3188 3192 3193 3194 3195 3196 3199 3202 3204 3206 3209 3210 3211 3210 3207 3207 3207 3208 3209 3208 3207 3206 3204 3203 3201 3199 3196 3193 3190
3160 3163 3161 3164 3170 3173 3173 3176 3179 3177 3180 3180 3178 3180 3184 3187 3190 3192 3193 3193 3195 3197 3199 3202 3202 3205 3206 3208 3208 3205 3205 3204 3202 3203 3202 3202 3201 3199 3196 3194 3192 3188 3185 3181
3156 3158 3159 3161 3165 3168 3169 3170 3173 3175 3176 3174 3177 3178 3183 3186 3187 3190 3191 3193 3193 3195 3197 3198 3199 3202 3199 3200 3201 3201 3200 3200 3197 3198 3198 3196 3194 3191 3190 3188 3184 3181 3176 3171
3151 3153 3153 3151 3157 3162 3166 3167 3169 3170 3171 3174 3175 3178 3180 3182 3185 3188 3189 3190 3192 3192 3194 3196 3194 3195 3194 3195 3194 3194 3194 3193 3193 3193 3191 3189 3187 3185 3183 3180 3176 3171 3167 3161
3146 3148 3151 3151 3151 3153 3157 3162 3164 3168 3170 3171 3170 3175 3174 3177 3180 3183 3184 3185 3186 3188 3189 3190 3190 3188 3187 3187 3187 3188 3189 3186 3188 3186 3184 3183 3180 3178 3174 3170 3166 3161 3155 3149
3141 3144 3149 3148 3149 3151 3151 3155 3160 3164 3167 3169 3170 3172 3170 3173 3178 3180 3179 3180 3181 3182 3184 3186 3182 3182 3182 3179 3180 3183 3182 3181 3181 3180 3177 3175 3172 3168 3164 3159 3154 3148 3142 3135
3137 3140 3144 3143 3147 3148 3150 3152 3155 3158 3163 3166 3167 3169 3167 3172 3174 3174 3175 3174 3175 3175 3175 3175 3176 3175 3173 3173 3176 3176 3176 3175 3173 3171 3169 3166 3162 3157 3153 3148 3141 3135 3129 3122
3132 3137 3139 3141 3145 3140 3145 3149 3151 3154 3158 3161 3166 3164 3165 3166 3168 3168 3169 3170 3169 3168 3169 3170 3169 3169 3169 3169 3170 3170 3169 3167 3166 3163 3159 3155 3151 3145 3141 3135 3129 3123 3117 3111
3126 3132 3135 3136 3136 3137 3139 3144 3148 3150 3155 3158 3162 3163 3163 3163 3163 3162 3163 3164 3164 3163 3164 3165 3165 3165 3165 3166 3165 3164 3162 3160 3157 3154 3149 3145 3140 3135 3130 3125 3118 3112 3106 3101
3122 3126 3130 3129 3127 3128 3133 3136 3142 3148 3151 3154 3158 3159 3161 3160 3163 3159 3160 3161 3161 3161 3162 3162 3162 3161 3161 3160 3159 3157 3154 3151 3148 3144 3140 3136 3131 3126 3121 3115 3109 3103 3097 3090
3117 3120 3121 3122 3126 3130 3130 3133 3139 3145 3149 3147 3153 3155 3157 3158 3158 3156 3157 3157 3158 3159 3159 3159 3157 3156 3155 3154 3152 3149 3146 3142 3138 3135 3130 3126 3121 3116 3112 3106 3100 3094 3088 3082
3111 3116 3117 3120 3119 3120 3124 3130 3137 3138 3139 3144 3149 3151 3152 3151 3153 3154 3154 3154 3154 3155 3155 3154 3153 3151 3149 3147 3145 3140 3136 3132 3129 3125 3120 3116 3112 3108 3103 3097 3092 3086 3080 3074
3105 3109 3113 3115 3113 3114 3122 3128 3129 3133 3137 3141 3145 3146 3145 3148 3149 3149 3150 3149 3150 3150 3150 3149 3148 3145 3143 3139 3135 3130 3126 3123 3119 3116 3112 3108 3105 3101 3096 3091 3085 3079 3073 3066
3098 3101 3107 3109 3111 3112 3116 3120 3125 3130 3133 3136 3139 3140 3143 3144 3143 3144 3144 3145 3145 3145 3144 3142 3141 3138 3134 3130 3126 3121 3118 3115 3112 3109 3106 3102 3097 3093 3089 3084 3078 3073 3067 3061
3094 3099 3104 3105 3106 3110 3113 3117 3122 3126 3129 3132 3135 3138 3138 3138 3138 3139 3140 3141 3139 3139 3137 3134 3132 3129 3125 3122 3119 3114 3111 3107 3104 3102 3098 3094 3089 3085 3080 3077 3072 3067 3063 3056
3090 3097 3099 3103 3103 3107 3110 3116 3119 3122 3125 3128 3129 3131 3132 3133 3135 3134 3136 3136 3133 3131 3129 3126 3122 3122 3118 3116 3111 3107 3104 3101 3097 3094 3090 3087 3082 3078 3074 3070 3066 3063 3058 3052